RH
40 40 41 41 40 43 46 43 46 37 40 32 35 39 40 37 34 33 33 37 39 38 38 40 43 45 45 39 32 27 19 18 18 16 16 15 14 14 14 14 14 14 13 14
41 36 40 42 39 41 43 43 44 42 40 37 35 35 32 29 26 25 25 27 30 37 40 39 41 42 39 34 28 29 20 17 18 18 15 13 12 12 12 12 12 12 12 12
44 42 40 38 35 37 38 37 37 43 31 31 28 25 22 18 17 18 19 20 22 28 34 41 43 42 37 28 26 25 19 17 19 18 14 12 11 11 10 10 10 10 10 11
46 37 41 24 26 25 27 26 27 26 24 25 22 18 16 16 18 19 20 19 21 20 25 34 40 42 35 29 27 22 15 14 17 18 15 13 12 11 10 10 10 10 10 10
42 45 29 22 21 21 20 18 17 20 20 19 19 19 20 19 20 20 19 19 20 24 23 30 37 35 32 30 28 21 16 13 14 16 16 14 13 12 12 11 10 10 10 10
48 48 34 22 23 23 23 23 22 21 22 24 24 25 26 24 24 26 27 26 23 22 26 31 33 33 28 27 28 19 15 15 15 15 15 14 14 13 13 13 12 12 11 12
54 54 37 25 27 29 24 27 29 32 32 30 33 37 38 29 28 31 39 34 30 25 22 27 30 30 30 26 28 22 17 15 15 15 15 15 14 12 13 13 14 14 14 14
68 72 61 43 37 33 37 40 47 45 44 47 47 48 51 45 37 35 42 47 41 32 27 25 24 23 25 26 28 25 18 16 15 15 15 15 14 13 13 14 15 15 16 16
58 53 49 52 49 50 48 52 53 52 47 46 49 51 50 51 52 49 52 54 53 51 43 34 29 26 25 28 30 29 21 19 18 17 17 17 16 15 15 15 15 15 16 17
46 43 49 50 48 47 48 49 48 46 44 41 36 35 33 33 33 35 35 37 39 44 50 51 48 38 30 28 30 30 28 24 22 22 21 18 18 18 18 18 18 18 18 19
47 43 43 44 47 47 45 43 41 37 35 36 36 36 36 35 34 32 31 29 28 29 30 33 42 50 49 42 34 29 26 25 25 25 24 21 20 19 19 19 22 22 22 24
49 46 47 48 47 45 42 39 38 38 39 42 43 42 42 41 39 37 34 32 31 30 29 28 27 28 33 42 50 50 45 39 36 33 32 32 31 30 30 29 30 31 33 34
57 55 52 49 51 48 46 45 46 47 49 47 47 46 45 43 42 42 43 40 36 34 33 30 28 29 30 32 32 34 37 43 47 49 49 52 53 51 47 44 47 46 45 46
70 70 69 66 60 55 53 53 54 52 50 46 43 40 39 39 40 42 43 43 44 42 36 35 34 33 34 34 34 34 36 36 36 36 39 42 43 46 51 55 57 57 58 57
64 63 62 62 62 61 59 56 55 53 50 48 47 45 43 39 35 32 34 38 39 43 45 41 36 36 36 35 35 35 34 35 37 41 46 50 53 57 60 64 68 69 71 74
62 59 57 56 58 58 60 59 55 51 49 48 46 45 44 44 42 37 30 30 32 33 40 46 45 39 38 38 38 41 45 49 52 55 58 60 62 64 65 65 67 70 74 73
63 62 63 62 60 59 64 61 57 53 49 52 54 52 49 46 42 39 37 37 35 33 31 43 45 51 51 53 56 57 59 62 64 67 69 69 70 69 70 71 73 77 81 82
59 58 56 54 50 48 48 48 48 45 39 35 37 40 43 46 42 40 37 32 30 33 34 30 43 53 62 66 70 73 75 78 80 82 82 80 80 80 77 78 79 79 81 83
42 40 41 42 45 43 40 40 40 38 33 29 26 24 24 29 35 39 40 37 36 32 34 37 35 44 56 72 77 79 81 84 87 86 87 85 84 82 80 82 83 82 80 80
40 40 39 39 36 36 36 36 35 33 29 25 24 24 25 27 30 30 34 37 40 42 39 40 42 37 42 59 70 70 70 75 76 74 71 68 66 66 68 70 73 73 73 75
37 36 36 34 28 22 24 25 28 28 28 26 22 22 24 24 29 32 34 36 39 48 49 45 51 50 50 48 55 68 71 76 74 73 73 73 74 73 72 73 73 72 73 73
34 32 25 21 21 21 21 23 22 22 22 20 21 22 22 22 25 27 30 36 37 43 46 47 52 61 62 62 58 56 72 73 71 69 69 68 67 67 66 66 68 70 70 68
20 22 23 24 25 25 23 23 22 23 24 25 26 26 27 26 27 30 28 27 36 41 43 42 45 54 58 57 53 52 59 68 76 68 64 64 64 63 62 63 63 65 65 65
23 24 27 28 28 28 26 23 26 26 30 32 33 34 35 35 29 30 32 28 28 37 40 40 39 45 51 56 53 51 56 60 67 73 70 69 67 64 58 59 61 60 62 64
29 30 31 31 30 30 32 31 31 33 39 40 38 35 35 36 38 31 34 32 28 32 44 48 47 50 55 58 59 57 54 56 60 67 70 69 67 66 65 63 60 59 61 61
35 36 35 35 36 37 38 40 42 42 45 46 42 37 35 35 36 35 33 34 32 34 46 58 58 57 63 66 64 63 63 60 61 64 68 72 71 70 67 64 64 64 65 67
35 34 37 37 39 43 41 44 49 47 48 48 42 38 39 37 37 36 33 32 36 41 54 65 67 68 69 70 70 74 73 70 72 73 73 74 75 74 75 76 77 77 79 83